Home > Weather > Germantown > Past weeks

Flag for USA Past Weather in Germantown, Maryland, USA — Yesterday and Last 2 Weeks

Now
73 °F

Clear.


Feels Like: 76 °F
Forecast: 64 / 79 °F
Wind: 10 mph from West

Location: Frederick Municipal Airport

Current Time: Jul 1, 2016 at 11:57:33 PM

Latest Report: Jul 1, 2016 at 11:30 PM


Visibility: 10 mi

Pressure: 29.97 "Hg

Humidity: 69%

Dew Point: 63 °F

Location of GermantownLocation

Past Weather in Germantown — Graph

°F

Germantown Temperature Yesterday

Maximum temperature yesterday: 82 °F (at 4:55 PM)
Minimum temperature yesterday: 55 °F (at 2:25 AM)
Average temperature yesterday: 65 °F

High & Low Weather Summary for the Past Weeks

 TemperatureHumidityPressure
High90 °F (Jun 20, 3:47 PM)100% (Jun 16, 10:10 PM)30.39 "Hg (Jun 16, 10:10 PM)
Low55 °F (Jun 18, 5:10 AM)29% (Jun 19, 4:47 PM)29.72 "Hg (Jun 16, 10:10 PM)
Average70 °F84%30.05 "Hg
* Reported Jun 16 10:10 PM — Jul 1 10:50 PM, Germantown, Weather by CustomWeather, © 2016

Note: Actual official high and low records may vary slightly from our data, if they occured in-between our weather recording intervals... More about our weather records

Advertising

Germantown Weather History for the Previous 24 Hours

Scroll right to see more
 ConditionsComfort  
Time TempWeatherWind HumidityBarometerVisibility
10:50 PM
Fri, Jul 1
73 °FClear.6 mph65%29.96 "Hg10 mi
10:30 PM75 °FClear.7 mph65%29.96 "Hg10 mi
10:10 PM75 °FClear.6 mph65%29.96 "Hg10 mi
9:50 PM73 °FClear.5 mph69%29.95 "Hg10 mi
9:30 PM75 °FSunny.6 mph65%29.94 "Hg10 mi
9:10 PM77 °FSunny.6 mph61%29.93 "Hg10 mi
8:50 PM79 °FSunny.7 mph54%29.92 "Hg10 mi
8:30 PM79 °FSunny.7 mph58%29.92 "Hg10 mi
7:50 PM82 °FSunny.8 mph51%29.90 "Hg10 mi
6:50 PM84 °FSunny.9 mph55%29.88 "Hg10 mi
5:50 PM84 °FBroken clouds.5 mph58%29.89 "Hg10 mi
4:47 PM84 °FSunny.10 mph58%29.90 "Hg10 mi
3:47 PM86 °FScattered clouds.7 mph59%29.91 "Hg10 mi
2:50 PM84 °FScattered clouds.6 mph66%29.93 "Hg10 mi
1:50 PM82 °FPartly sunny.9 mph66%29.94 "Hg10 mi
12:48 PM84 °FPartly sunny.9 mph62%29.96 "Hg10 mi
11:50 AM82 °FPartly sunny.12 mph66%29.97 "Hg10 mi
10:48 AM79 °FSunny.10 mph74%29.98 "Hg10 mi
9:50 AM77 °FSunny.5 mph79%29.99 "Hg10 mi
7:50 AM66 °FSunny.No wind100%30.01 "Hg10 mi
6:50 AM63 °FSunny.No wind100%30.01 "Hg7 mi
6:15 AM61 °FFog.No wind100%30.00 "Hg2 mi
6:10 AM61 °FFog.No wind100%30.00 "Hg2 mi
5:50 AM61 °FFog.No wind100%30.01 "Hg3 mi
5:30 AM61 °FFog.No wind100%30.00 "Hg3 mi
5:10 AM61 °FFog.No wind100%30.01 "Hg2 mi
4:50 AM61 °FFog.No wind100%30.00 "Hg5 mi
4:30 AM61 °FFog.No wind100%30.00 "Hg1 mi
4:10 AM61 °FFog.No wind100%30.01 "Hg5 mi
3:50 AM63 °FClear.No wind100%30.01 "Hg7 mi
3:30 AM63 °FClear.No wind100%30.01 "Hg7 mi
3:10 AM63 °FClear.No wind100%30.01 "Hg7 mi
2:50 AM63 °FClear.No wind100%30.01 "Hg7 mi
2:30 AM63 °FClear.No wind100%30.02 "Hg10 mi
2:10 AM63 °FClear.No wind100%30.02 "Hg7 mi
1:50 AM63 °FClear.No wind100%30.03 "Hg7 mi
1:30 AM64 °FClear.No wind100%30.03 "Hg10 mi
1:10 AM64 °FClear.No wind100%30.04 "Hg10 mi
12:50 AM64 °FClear.No wind100%30.04 "Hg10 mi
12:30 AM64 °FClear.No wind100%30.05 "Hg10 mi
12:10 AM64 °FClear.No wind100%30.05 "Hg10 mi
11:50 PM
Thu, Jun 30
66 °FClear.No wind94%30.05 "Hg10 mi
11:30 PM66 °FClear.No wind100%30.05 "Hg10 mi
11:10 PM68 °FClear.No wind88%30.05 "Hg10 mi
Weather by CustomWeather, © 2016

See weather overviewHow to use our weather pages